Showing default

TELSTAR 1, 340

Orbit data source: Space-Track

TELSTAR 1, 340 is a payload satellite owned by AT&T (US) in LEO that was launched on Tue, 10 Jul 1962 UTC via a THOR DELTA launch vehicle from the Air Force Eastern Test Range (AFETR). Payload-class satellites include a variety of spacecraft equipped with specific instruments for various scientific and technological missions. These include communications satellites like Starlink; space stations such as the ISS; scientific satellites like the Hubble; Earth observation satellites from companies like Planet Labs, Umbra, and HawkEye 360; GPS; miniature CubeSats for education and research; and military/defense satellites.

Loading next visibility...
Identifier
340, 1962-029A
Orbit
LEO
Country
Flag of USUS
Related business
Manufacturer
AT&T/BTL
Mission
Spacecraft
Bus & Motor
TSX, Unknown motor
Mass
77 kg wet, 77 kg dry
Launch date (UTC)
1962-07-10 (64 years ago)
Launch vehicle
THOR DELTA
Launch site
Air Force Eastern Test Range (AFETR)
Object type
Payload
Rocket body
Debris
Shape & HBR
SPHERE + ANT, 1.1 m
Radar Cross Section
Medium (>0.1 m² and <1 m²)

Expand to show TLE details & history
Last TLE update: 1 day ago

TLE from 1 day ago
0 TELSTAR 1
1 00340U 62029A   26254.75666140 -.00000087  00000-0 -47183-3 0  9993
2 00340  44.8044 158.9433 2427969 314.3172  54.6474  9.12894937140362
Epoch: 2026-09-11T18:09Z
TLE epoch observation values (Epoch: 2026-09-11T18:09:35.544Z)
Latitude
24.18686°
Longitude
-77.4739°
Altitude
2,394.216 km
Speed
7.05 km/s
True Right ascension
12h 22m 47s
True Declination
24° 04' 57"
Sunlit
Object was in daylight at epoch
Visualization orbit readout
Latitude
Unknown
Longitude
Unknown
Altitude
Unknown
Speed
Unknown
Apparent Right ascension
Unknown
Apparent Declination
Unknown
Sunlit
N/A
Visualization observer readout
Local Sidereal Time
13:53:25
Azimuth
Unknown
Elevation
Unknown
Doppler factor
Unknown
Orbital elements
Apogee altitude
5,642.078 km
Perigee altitude
945.46 km
Semi-major axis
9,671.906 km
Eccentricity
0.2428
Inclination
44.8044°
RAAN
158.9433°
Arg. of periapsis
314.3172°
True anomaly
81.12836°
Mean anomaly
54.6474°
Eccentric anomaly
67.49968°
Mean motion
2.28179 °/min
Orbital period
157.77 mins
BSTAR
-0.00047183
Loading maneuver chart data...
Computing Atmospheric mass density...
Loading historical data...
Loading historical data...
Loading historical data...
Loading historical data...
Loading historical data...
Loading historical data...
Loading historical data...
Other satellites on launch #29 in the year 1962 (1962-07-10 UTC)

Documentation

Showing up to 5 results
|